Torna al catalogo

COSMOS 1806

AttivoNavigazioneHEO
NORAD 17213·PAYLOAD·🇷🇺 Russia

Lanciato Dec 12, 1986 da Plesetsk Cosmodrome

Loading…

Prossimi Passaggi (prossime 24 ore)

TLE

AggiornatoSource: Space-Track

Epoca: Sep 12, 2026, 20:26 UTC

1 17213U 86098A   26255.85178413  .00000078  00000-0  00000-0 0  9997
2 17213  68.6294 141.8111 4774923  76.7665  49.5134  2.00775420291062

Traccia COSMOS 1806 in tempo reale con AllMySat

Download on the App Store